Location: Forestville
(38.4740°N, 122.8890°W)
Time: 18:09:36
(UTC-07:00)

Amateur Radio Satellites - All Passes

Search period start: 28 August 2014 17:39
Search period end: 29 August 2014 17:39
Location: Forestville, 38.4740°N, 122.8890°W

Satellite Date Start Highest point End Downlink Frequencies (MHz)
Time Altitude Azimuth
Hamsat 28 Aug 17:52:02 17:56:00 38° 72° (ENE) 18:00:01 145.90 MHz
Sapphire 28 Aug 17:58:59 18:04:23 85° 117° (ESE) 18:09:50 437.095 MHz 1200 baud AX-25 AFSK
OPAL 28 Aug 18:03:49 18:09:01 71° 288° (WNW) 18:14:12 ?
JAS-2 28 Aug 18:16:19 18:22:42 72° 75° (ENE) 18:28:21 435.800 - 435.900 CW/SSB, 435.910 FM
PCSat 28 Aug 18:28:58 18:34:12 50° 302° (WNW) 18:39:29 145.825 MHz
RS-15 28 Aug 18:32:05 18:43:03 68° 245° (WSW) 18:54:29 29.354 - 29.394 USB, Beacon 29.352 USB
AO-7 28 Aug 18:37:21 18:42:11 16° 269° (W) 18:47:03 29.400 - 29.500 MHz
SO-67 28 Aug 18:46:05 18:48:26 17° 70° (ENE) 18:50:48 435.3500 MHz FM
ISS 28 Aug 18:49:04 18:52:24 69° 221° (SW) 18:55:42 145.800 FM
Hamsat 28 Aug 19:29:18 19:32:06 17° 267° (W) 19:34:56 145.90 MHz
STRAND 1 28 Aug 19:43:56 19:48:55 52° 100° (E) 19:53:53 ?
Sapphire 28 Aug 19:45:22 19:48:31 15° 315° (NW) 19:51:41 437.095 MHz 1200 baud AX-25 AFSK
JAS-2 28 Aug 20:04:44 20:08:06 15° 267° (W) 20:11:17 435.800 - 435.900 CW/SSB, 435.910 FM
SO-67 28 Aug 20:18:31 20:21:19 23° 264° (W) 20:24:08 435.3500 MHz FM
HO-68 28 Aug 20:45:04 20:51:50 48° 67° (ENE) 20:58:36 435.675 MHz FM
RS-15 28 Aug 20:49:31 20:53:18 12° 264° (W) 20:57:07 29.354 - 29.394 USB, Beacon 29.352 USB
UKube-1 28 Aug 21:04:56 21:08:32 26° 69° (ENE) 21:12:10 145.840 MHz, 145.915 MHz
Oscar 11 28 Aug 21:13:51 21:16:58 20° 67° (ENE) 21:20:06 145.825 FM, Beacon 2401.500 USB
STRAND 1 28 Aug 21:24:17 21:27:40 18° 296° (WNW) 21:31:03 ?
FUNcube-1 28 Aug 21:35:19 21:36:56 12° 64° (ENE) 21:38:33 145.950 - 145.970 MHz USB
HO-68 28 Aug 22:33:34 22:39:40 31° 264° (W) 22:45:50 435.675 MHz FM
UKube-1 28 Aug 22:41:04 22:44:40 25° 264° (W) 22:48:16 145.840 MHz, 145.915 MHz
Oscar 11 28 Aug 22:48:58 22:52:54 34° 263° (W) 22:56:52 145.825 FM, Beacon 2401.500 USB
MaSat-1 28 Aug 22:56:09 22:59:49 23° 53° (NE) 23:03:07 437.345 MHz
KITSAT 1 28 Aug 23:08:33 23:15:01 27° 105° (ESE) 23:21:30 435.175 FM
FUNcube-1 28 Aug 23:08:45 23:12:49 54° 260° (W) 23:16:58 145.950 - 145.970 MHz USB
AO-40 28 Aug 23:27:18 02:30:16 26° 123° (ESE) 03:49:47 Beacon 2401.320
Saudisat 1A 28 Aug 23:47:36 23:51:59 74° 302° (WNW) 23:56:25 436.775 MHz
MaSat-1 29 Aug 00:32:54 00:36:55 32° 255° (WSW) 00:40:26 437.345 MHz
KITSAT 1 29 Aug 01:01:48 01:09:48 63° 303° (WNW) 01:17:51 435.175 FM
Saudisat 1A 29 Aug 01:31:41 01:32:21 10° 321° (NW) 01:33:01 436.775 MHz
PCSat 29 Aug 01:36:20 01:39:28 15° 44° (NE) 01:42:34 145.825 MHz
Oscar 19 29 Aug 01:49:02 01:52:52 21° 94° (E) 01:56:41 437.125 CW, 437.150 USB
ITAMSAT 1 29 Aug 02:17:30 02:20:39 16° 92° (E) 02:23:48 435.822 SSB
Oscar 16 29 Aug 02:22:41 02:27:41 46° 99° (E) 02:32:39 437.025 USB, Beacon 2401.1428
Uribyol 2 29 Aug 02:27:19 02:31:17 22° 94° (E) 02:35:14 436.500 FM
AO-Echo 29 Aug 02:31:36 02:35:20 23° 95° (E) 02:39:04 ?
AO-27 29 Aug 02:44:53 02:49:28 31° 97° (E) 02:54:01 436.795 MHz FM
Sapphire 29 Aug 02:48:33 02:53:49 49° 58° (ENE) 02:59:04 437.095 MHz 1200 baud AX-25 AFSK
JAS-1B 29 Aug 03:00:29 03:06:43 39° 96° (E) 03:12:10 435.800 - 435.900 CW/SSB
Oscar 10/S400 29 Aug 03:01:06 04:13:17 45° 227° (SW) 09:55:19 145.825 - 145.975 CW/USB, Beacon 145.810 USB
KITSAT 1 29 Aug 03:02:03 03:06:59 17° 326° (NNW) 03:11:55 435.175 FM
Gurwin Techsat 1B 29 Aug 03:02:40 03:06:33 20° 93° (E) 03:10:25 435.225 FM
PCSat 29 Aug 03:18:09 03:23:36 87° 244° (WSW) 03:29:01 145.825 MHz
Oscar 19 29 Aug 03:27:27 03:32:23 44° 289° (WNW) 03:37:16 437.125 CW, 437.150 USB
SO-50 29 Aug 03:33:33 03:36:34 18° 110° (ESE) 03:39:37 436.795 FM
OPAL 29 Aug 03:40:16 03:43:58 21° 62° (ENE) 03:47:42 ?
TMSAT-1 29 Aug 03:54:32 03:59:39 47° 99° (E) 04:04:43 436.925 FM
ITAMSAT 1 29 Aug 03:55:24 04:00:28 56° 288° (WNW) 04:05:31 435.822 SSB
Oscar 16 29 Aug 04:02:52 04:06:41 21° 295° (WNW) 04:10:29 437.025 USB, Beacon 2401.1428
Uribyol 2 29 Aug 04:06:02 04:10:53 42° 290° (WNW) 04:15:44 436.500 FM
AO-Echo 29 Aug 04:09:59 04:14:08 32° 290° (WNW) 04:18:17 ?
AO-27 29 Aug 04:24:26 04:28:53 30° 292° (WNW) 04:33:20 436.795 MHz FM
Sapphire 29 Aug 04:32:52 04:36:51 21° 254° (WSW) 04:40:50 437.095 MHz 1200 baud AX-25 AFSK
Gurwin Techsat 1B 29 Aug 04:41:40 04:46:43 46° 289° (WNW) 04:51:45 435.225 FM
AO-7 29 Aug 04:43:58 04:51:17 34° 98° (E) 04:58:32 29.400 - 29.500 MHz
JAS-1B 29 Aug 04:51:21 04:57:09 30° 298° (WNW) 05:02:18 435.800 - 435.900 CW/SSB
Uosat F 29 Aug 04:58:28 05:03:01 34° 98° (E) 05:07:33 435.120 FM
SO-50 29 Aug 05:12:28 05:16:44 44° 306° (NW) 05:21:08 436.795 FM
OPAL 29 Aug 05:17:40 05:22:29 46° 259° (WSW) 05:27:24 ?
TMSAT-1 29 Aug 05:35:19 05:39:12 21° 295° (WNW) 05:43:05 436.925 FM
UOSAT-12 29 Aug 05:42:07 05:46:04 29° 113° (ESE) 05:50:07 437.025 FM, 437.400 FM
AO-7 29 Aug 06:36:20 06:44:15 52° 295° (WNW) 06:52:08 29.400 - 29.500 MHz
Uosat F 29 Aug 06:37:34 06:41:37 25° 293° (WNW) 06:45:40 435.120 FM
RS-15 29 Aug 06:45:25 06:53:00 22° 101° (E) 07:00:27 29.354 - 29.394 USB, Beacon 29.352 USB
STRAND 1 29 Aug 06:58:24 07:03:26 65° 74° (ENE) 07:08:30 ?
KITSAT 1 29 Aug 07:02:54 07:06:55 14° 29° (NNE) 07:10:54 435.175 FM
JAS-2 29 Aug 07:11:19 07:16:33 70° 102° (ESE) 07:22:10 435.800 - 435.900 CW/SSB, 435.910 FM
Hamsat 29 Aug 07:14:43 07:19:06 84° 283° (WNW) 07:23:24 145.90 MHz
UOSAT-12 29 Aug 07:22:03 07:26:09 31° 310° (NW) 07:30:20 437.025 FM, 437.400 FM
SO-67 29 Aug 07:43:23 07:46:15 24° 96° (E) 07:49:06 435.3500 MHz FM
Saudisat 1A 29 Aug 08:15:43 08:20:05 56° 56° (NE) 08:24:24 436.775 MHz
AO-7 29 Aug 08:33:57 08:35:06 10° 315° (NW) 08:36:14 29.400 - 29.500 MHz
STRAND 1 29 Aug 08:40:41 08:43:03 13° 269° (W) 08:45:26 ?
RS-15 29 Aug 08:52:44 09:03:53 87° 300° (WNW) 09:14:52 29.354 - 29.394 USB, Beacon 29.352 USB
KITSAT 1 29 Aug 08:56:39 09:04:30 51° 54° (NE) 09:12:16 435.175 FM
JAS-2 29 Aug 08:58:37 09:01:09 14° 298° (WNW) 09:03:45 435.800 - 435.900 CW/SSB, 435.910 FM
SO-67 29 Aug 09:16:51 09:19:07 17° 291° (WNW) 09:21:22 435.3500 MHz FM
Saudisat 1A 29 Aug 09:56:58 09:59:10 14° 252° (WSW) 10:01:21 436.775 MHz
HO-68 29 Aug 10:01:27 10:08:29 57° 102° (ESE) 10:15:29 435.675 MHz FM
UKube-1 29 Aug 10:29:52 10:34:10 59° 101° (E) 10:38:26 145.840 MHz, 145.915 MHz
Oscar 11 29 Aug 10:37:40 10:41:53 46° 99° (E) 10:46:04 145.825 FM, Beacon 2401.500 USB
KITSAT 1 29 Aug 10:52:30 10:59:35 35° 253° (WSW) 11:06:39 435.175 FM
FUNcube-1 29 Aug 10:59:11 11:03:14 32° 97° (E) 11:07:20 145.950 - 145.970 MHz USB
RS-15 29 Aug 11:08:57 11:17:56 28° 326° (NW) 11:26:57 29.354 - 29.394 USB, Beacon 29.352 USB
ISS 29 Aug 11:30:23 11:33:42 89° 140° (SE) 11:37:02 145.800 FM
HO-68 29 Aug 11:49:58 11:55:43 27° 299° (WNW) 12:01:29 435.675 MHz FM
SO-50 29 Aug 12:05:53 12:08:45 16° 43° (NE) 12:11:38 436.795 FM
UKube-1 29 Aug 12:08:06 12:09:51 12° 297° (WNW) 12:11:36 145.840 MHz, 145.915 MHz
Oscar 11 29 Aug 12:15:08 12:17:40 15° 295° (WNW) 12:20:11 145.825 FM, Beacon 2401.500 USB
FUNcube-1 29 Aug 12:35:53 12:39:27 23° 291° (WNW) 12:43:03 145.950 - 145.970 MHz USB
MaSat-1 29 Aug 12:44:03 12:46:25 14° 99° (E) 12:48:52 437.345 MHz
Oscar 19 29 Aug 13:04:30 13:08:44 26° 67° (ENE) 13:13:00 437.125 CW, 437.150 USB
ISS 29 Aug 13:08:38 13:10:50 16° 338° (NNW) 13:13:02 145.800 FM
PANSAT 29 Aug 13:20:47 13:23:04 15° 170° (S) 13:25:21 not established
RS-15 29 Aug 13:29:39 13:35:46 16° 2° (N) 13:41:57 29.354 - 29.394 USB, Beacon 29.352 USB
ITAMSAT 1 29 Aug 13:34:02 13:37:58 22° 65° (ENE) 13:41:53 435.822 SSB
Oscar 16 29 Aug 13:38:09 13:43:11 57° 73° (ENE) 13:48:16 437.025 USB, Beacon 2401.1428
JAS-1B 29 Aug 13:40:20 13:49:09 40° 66° (ENE) 13:57:13 435.800 - 435.900 CW/SSB
AO-Echo 29 Aug 13:43:01 13:47:18 29° 69° (ENE) 13:51:30 ?
Uribyol 2 29 Aug 13:43:49 13:48:12 29° 68° (ENE) 13:52:36 436.500 FM
SO-50 29 Aug 13:45:03 13:49:51 77° 241° (WSW) 13:54:42 436.795 FM
AO-27 29 Aug 14:01:36 14:06:26 41° 70° (ENE) 14:11:16 436.795 MHz FM
UOSAT-12 29 Aug 14:13:06 14:16:39 20° 46° (NE) 14:20:09 437.025 FM, 437.400 FM
MaSat-1 29 Aug 14:17:57 14:22:44 66° 296° (WNW) 14:27:52 437.345 MHz
Gurwin Techsat 1B 29 Aug 14:22:16 14:26:44 29° 67° (ENE) 14:31:14 435.225 FM
Oscar 19 29 Aug 14:43:13 14:47:54 35° 263° (W) 14:52:37 437.125 CW, 437.150 USB
PANSAT 29 Aug 14:59:55 15:02:37 18° 183° (S) 15:05:19 not established
ITAMSAT 1 29 Aug 15:12:17 15:17:10 42° 261° (W) 15:22:04 435.822 SSB
TMSAT-1 29 Aug 15:13:49 15:19:01 63° 74° (ENE) 15:24:15 436.925 FM
Oscar 16 29 Aug 15:19:53 15:22:53 16° 268° (W) 15:25:55 437.025 USB, Beacon 2401.1428
AO-Echo 29 Aug 15:21:32 15:25:59 30° 263° (W) 15:30:19 ?
Uribyol 2 29 Aug 15:23:01 15:27:34 31° 263° (W) 15:32:08 436.500 FM
JAS-1B 29 Aug 15:29:45 15:39:19 53° 261° (W) 15:48:09 435.800 - 435.900 CW/SSB
AO-7 29 Aug 15:41:18 15:48:55 42° 62° (ENE) 15:56:32 29.400 - 29.500 MHz
AO-27 29 Aug 15:42:07 15:46:04 22° 266° (W) 15:50:03 436.795 MHz FM
RS-15 29 Aug 15:43:55 15:53:21 31° 37° (NE) 16:03:00 29.354 - 29.394 USB, Beacon 29.352 USB
UOSAT-12 29 Aug 15:52:31 15:57:05 51° 244° (WSW) 16:01:34 437.025 FM, 437.400 FM
MaSat-1 29 Aug 16:00:27 16:00:47 10° 315° (NW) 16:01:07 437.345 MHz
Gurwin Techsat 1B 29 Aug 16:01:49 16:06:34 33° 263° (W) 16:11:22 435.225 FM
Uosat F 29 Aug 16:10:18 16:14:59 41° 70° (ENE) 16:19:40 435.120 FM
PCSat 29 Aug 16:18:00 16:20:51 15° 103° (ESE) 16:23:42 145.825 MHz
ISS 29 Aug 16:24:49 16:26:40 14° 19° (NNE) 16:28:31 145.800 FM
PANSAT 29 Aug 16:40:41 16:42:08 12° 195° (SSW) 16:43:36 not established
TMSAT-1 29 Aug 16:56:31 16:59:21 15° 269° (W) 17:02:12 436.925 FM
JAS-2 29 Aug 17:22:58 17:27:54 26° 67° (ENE) 17:32:27 435.800 - 435.900 CW/SSB, 435.910 FM
Sapphire 29 Aug 17:28:41 17:33:59 62° 114° (ESE) 17:39:20 437.095 MHz 1200 baud AX-25 AFSK
OPAL 29 Aug 17:28:43 17:33:50 53° 102° (ESE) 17:38:53 ?
